Kremmling, CO

4:51 PM MDT on September 19, 2017 (GMT -0600)
Kremmling

Weather History for K20V - January, 2013

Change the Weather History Date:

Monday, January 7, 2013

  Actual Average Record
Temperature  
Mean Temperature -10 °F -  
Max Temperature 3 °F - 44 °F (2006)
Min Temperature -22 °F - -26 °F (2017)
Degree Days  
Heating Degree Days 74    
Month to date heating degree days  
Cooling Degree Days 0    
Month to date cooling degree days  
Moisture  
Dew Point -20 °F    
Average Humidity 66    
Maximum Humidity 77    
Minimum Humidity 55    
Precipitation  
Precipitation 0.00 in - 0.05 in (2012)
Sea Level Pressure  
Sea Level Pressure 30.15 in    
Wind  
Wind Speed 0 mph (NNE)    
Max Wind Speed 5 mph    
Max Gust Speed -    
T = Trace of Precipitation, MM = Missing Value Source: NWS Daily Summary

Daily Weather History Graph

Daily Weather History Graph

Search for Another Location

Airport or City:

Trip Planner

Search our weather history database for the weather conditions in past years. The results will help you decide how hot, cold, wet, or windy it might be!

Date:

Astronomy

Jan. 07, 2013 Rise Set
Actual Time 7:27 AM MST 4:56 PM MST
Civil Twilight 6:57 AM MST 5:26 PM MST
Nautical Twilight 6:23 AM MST 6:00 PM MST
Astronomical Twilight 5:50 AM MST 6:33 PM MST
Moon 2:54 AM MST (1/7) 1:09 PM MST (1/7)
Length of Visible Light 10h 29m
Length of Day
9h 29m
Waning Crescent, 22% of the Moon is Illuminated
Jan 7
Waning Crescent
Jan 11
New
Jan 18
First Quarter
Jan 26
Full
Feb 3
Last Quarter

Hourly Weather History & Observations

Time (MST) Temp. Windchill Dew Point Humidity Pressure Visibility Wind Dir Wind Speed Gust Speed Precip Events Conditions
12:16 AM -14.8 °F - -23.8 °F 64% 30.18 in - Calm Calm - N/A   Clear
12:36 AM -16.6 °F - -23.8 °F 70% 30.19 in - Calm Calm - N/A   Clear
12:56 AM -16.6 °F - -23.8 °F 70% 30.18 in - Calm Calm - N/A   Clear
1:16 AM -14.8 °F - -22.0 °F 70% 30.18 in - Calm Calm - N/A   Clear
1:36 AM -16.6 °F - -23.8 °F 70% 30.19 in - Calm Calm - N/A   Clear
1:56 AM -16.6 °F - -23.8 °F 70% 30.19 in - Calm Calm - N/A   Clear
2:16 AM -16.6 °F - -23.8 °F 70% 30.19 in - Calm Calm - N/A   Clear
2:36 AM -18.4 °F - -27.4 °F 63% 30.20 in - Calm Calm - N/A   Clear
2:56 AM -18.4 °F - -27.4 °F 63% 30.19 in - Calm Calm - N/A   Clear
3:16 AM -18.4 °F - -25.6 °F 70% 30.19 in - Calm Calm - N/A   Clear
3:36 AM -18.4 °F - -27.4 °F 63% 30.20 in - Calm Calm - N/A   Clear
3:56 AM -18.4 °F - -27.4 °F 63% 30.19 in - Calm Calm - N/A   Clear
4:16 AM -20.2 °F - -27.4 °F 69% 30.19 in - Calm Calm - N/A   Clear
4:36 AM -20.2 °F - -27.4 °F 69% 30.19 in - Calm Calm - N/A   Clear
5:16 AM -20.2 °F - -27.4 °F 69% 30.21 in - Calm Calm - N/A   Clear
5:36 AM -20.2 °F - -27.4 °F 69% 30.21 in - Calm Calm - N/A   Clear
5:56 AM -20.2 °F - -27.4 °F 69% 30.22 in - Calm Calm - N/A   Clear
6:16 AM -20.2 °F - -27.4 °F 69% 30.22 in - Calm Calm - N/A   Clear
6:36 AM -22.0 °F - -31.0 °F 63% 30.22 in - Calm Calm - N/A   Clear
6:56 AM -22.0 °F - -31.0 °F 63% 30.22 in - Calm Calm - N/A   Clear
7:16 AM -22.0 °F - -29.2 °F 69% 30.22 in - Calm Calm - N/A   Clear
7:36 AM -22.0 °F - -31.0 °F 63% 30.23 in - Calm Calm - N/A   Clear
7:56 AM -22.0 °F - -31.0 °F 63% 30.23 in - Calm Calm - N/A   Clear
8:16 AM -20.2 °F - -27.4 °F 69% 30.24 in - Calm Calm - N/A   Clear
8:35 AM -20.2 °F - -27.4 °F 69% 30.24 in - Calm Calm - N/A   Clear
8:56 AM -18.4 °F - -25.6 °F 70% 30.23 in - Calm Calm - N/A   Clear
9:15 AM -16.6 °F - -25.6 °F 64% 30.22 in - Calm Calm - N/A   Clear
9:36 AM -14.8 °F - -22.0 °F 70% 30.23 in - Calm Calm - N/A   Clear
9:56 AM -9.4 °F - -20.2 °F 59% 30.23 in - Calm Calm - N/A   Clear
10:16 AM -13.0 °F - -22.0 °F 64% 30.23 in - Calm Calm - N/A   Clear
10:35 AM -9.4 °F - -20.2 °F 59% 30.23 in - Calm Calm - N/A   Clear
10:56 AM -9.4 °F - -20.2 °F 59% 30.22 in - Calm Calm - N/A   Clear
11:16 AM -7.6 °F - -18.4 °F 59% 30.21 in - Calm Calm - N/A   Clear
11:35 AM -5.8 °F - -16.6 °F 60% 30.19 in - Calm Calm - N/A   Clear
12:16 PM -4.0 °F - -16.6 °F 55% 30.14 in - Calm Calm - N/A   Clear
12:36 PM -2.2 °F - -14.8 °F 55% 30.14 in - Calm Calm - N/A   Clear
12:56 PM -0.4 °F - -13.0 °F 55% 30.12 in - Calm Calm - N/A   Clear
1:16 PM -0.4 °F - -13.0 °F 55% 30.12 in - Calm Calm - N/A   Clear
1:35 PM -0.4 °F - -13.0 °F 55% 30.12 in - Calm Calm - N/A   Clear
1:56 PM -0.4 °F - -13.0 °F 55% 30.11 in - Calm Calm - N/A   Clear
2:16 PM 1.4 °F - -9.4 °F 61% 30.11 in - Calm Calm - N/A   Clear
2:36 PM 3.2 °F -4.2 °F -9.4 °F 56% 30.10 in - ESE 3.5 mph - N/A   Clear
2:56 PM 3.2 °F - -9.4 °F 56% 30.09 in - Calm Calm - N/A   Clear
3:16 PM 3.2 °F - -9.4 °F 56% 30.09 in - Calm Calm - N/A   Clear
3:36 PM 1.4 °F -6.2 °F -9.4 °F 61% 30.09 in - West 3.5 mph - N/A   Clear
4:16 PM 1.4 °F - -9.4 °F 61% 30.09 in - Calm Calm - N/A   Clear
4:36 PM -0.4 °F - -9.4 °F 66% 30.08 in - Calm Calm - N/A   Clear
4:56 PM -2.2 °F - -9.4 °F 71% 30.08 in - Calm Calm - N/A   Clear
5:16 PM -4.0 °F - -13.0 °F 65% 30.09 in - Calm Calm - N/A   Clear
5:36 PM -7.6 °F - -16.6 °F 65% 30.08 in - Calm Calm - N/A   Clear
5:56 PM -7.6 °F - -14.8 °F 71% 30.09 in - Calm Calm - N/A   Clear
6:16 PM -7.6 °F -16.5 °F -16.6 °F 65% 30.08 in - NNE 3.5 mph - N/A   Clear
6:36 PM -7.6 °F - -14.8 °F 71% 30.09 in - Calm Calm - N/A   Clear
6:56 PM -7.6 °F - -16.6 °F 65% 30.09 in - Calm Calm - N/A   Clear
7:16 PM -9.4 °F - -16.6 °F 71% 30.10 in - Calm Calm - N/A   Clear
7:36 PM -9.4 °F - -16.6 °F 71% 30.09 in - Calm Calm - N/A   Clear
7:56 PM -13.0 °F - -18.4 °F 77% 30.09 in - Calm Calm - N/A   Clear
8:16 PM -13.0 °F - -18.4 °F 77% 30.09 in - Calm Calm - N/A   Clear
8:36 PM -13.0 °F - -18.4 °F 77% 30.09 in - Calm Calm - N/A   Clear
8:56 PM -13.0 °F - -18.4 °F 77% 30.09 in - Calm Calm - N/A   Clear
9:15 PM -13.0 °F - -18.4 °F 77% 30.09 in - Calm Calm - N/A   Clear
9:36 PM -14.8 °F -24.8 °F -22.0 °F 70% 30.09 in - NNE 3.5 mph - N/A   Clear
9:56 PM -13.0 °F - -20.2 °F 70% 30.09 in - Calm Calm - N/A   Clear
10:16 PM -13.0 °F - -20.2 °F 70% 30.09 in - Calm Calm - N/A   Clear
10:36 PM -11.2 °F -23.0 °F -18.4 °F 70% 30.09 in - North 4.6 mph - N/A   Clear
10:56 PM -13.0 °F -22.7 °F -20.2 °F 70% 30.10 in - West 3.5 mph - N/A   Scattered Clouds
11:16 PM -13.0 °F -25.1 °F -22.0 °F 64% 30.09 in - ESE 4.6 mph - N/A Snow Light Snow
11:35 PM -13.0 °F - -20.2 °F 70% 30.08 in - Calm Calm - N/A   Clear
11:56 PM -13.0 °F - -18.4 °F 77% 30.08 in - Calm Calm - N/A   Clear